Home > Weather > Osage City > Past weeks

Flag for USA Past Weather in Osage City, Kansas, USA — Yesterday and Last 2 Weeks

Now
85 °F

Clear.


Feels Like: 89 °F
Forecast: 79 / 97 °F
Wind: 13 mph from South

Location: Forbes Field

Current Time: Jul 24, 2016 at 1:59:04 AM

Latest Report: Jul 24, 2016 at 12:53 AM


Visibility: 10 mi

Pressure: 29.81 "Hg

Humidity: 61%

Dew Point: 70 °F

Location of Osage CityLocation

Past Weather in Osage City — Graph

°F

Osage City Temperature Yesterday

Maximum temperature yesterday: 97 °F (at 3:53 PM)
Minimum temperature yesterday: 81 °F (at 5:53 AM)
Average temperature yesterday: 88 °F

High & Low Weather Summary for the Past Weeks

 TemperatureHumidityPressure
High101 °F (Jul 22, 2:53 PM)97% (Jul 14, 3:53 AM)30.16 "Hg (Jul 14, 3:53 AM)
Low65 °F (Jul 15, 4:53 AM)37% (Jul 22, 2:53 PM)29.66 "Hg (Jul 11, 4:53 PM)
Average83 °F70%29.94 "Hg
* Reported Jul 9 12:53 AM — Jul 24 12:53 AM, Osage City, Weather by CustomWeather, © 2016

Note: Actual official high and low records may vary slightly from our data, if they occured in-between our weather recording intervals... More about our weather records

Advertising

Osage City Weather History for the Previous 24 Hours

Scroll right to see more
 ConditionsComfort  
Time TempWeatherWind HumidityBarometerVisibility
12:53 AM
Sun, Jul 24
85 °FClear.13 mph61%29.81 "Hg10 mi
11:53 PM
Sat, Jul 23
86 °FClear.9 mph59%29.82 "Hg10 mi
10:53 PM85 °FClear.9 mph63%29.82 "Hg10 mi
9:53 PM86 °FClear.8 mph63%29.82 "Hg10 mi
8:53 PM87 °FSunny.8 mph63%29.80 "Hg10 mi
7:53 PM90 °FSunny.10 mph61%29.79 "Hg10 mi
6:53 PM94 °FSunny.8 mph54%29.80 "Hg10 mi
5:53 PM92 °FSunny.8 mph56%29.82 "Hg10 mi
4:53 PM93 °FSunny.9 mph50%29.83 "Hg10 mi
3:53 PM97 °FSunny.13 mph45%29.83 "Hg10 mi
2:53 PM96 °FSunny.15 mph46%29.83 "Hg10 mi
1:53 PM95 °FSunny.13 mph49%29.84 "Hg10 mi
12:53 PM93 °FSunny.12 mph50%29.85 "Hg10 mi
11:53 AM92 °FSunny.12 mph52%29.87 "Hg10 mi
10:53 AM89 °FSunny.10 mph59%29.88 "Hg10 mi
9:53 AM86 °FSunny.8 mph65%29.90 "Hg10 mi
8:53 AM84 °FSunny.8 mph70%29.92 "Hg10 mi
7:53 AM83 °FPartly sunny.3 mph72%29.93 "Hg10 mi
6:53 AM81 °FClear.6 mph72%29.90 "Hg10 mi
5:53 AM81 °FClear.8 mph72%29.88 "Hg10 mi
4:53 AM82 °FClear.6 mph70%29.88 "Hg10 mi
3:53 AM82 °FClear.5 mph70%29.89 "Hg10 mi
2:53 AM83 °FClear.8 mph68%29.90 "Hg10 mi
1:53 AM84 °FClear.8 mph65%29.91 "Hg10 mi
Weather by CustomWeather, © 2016

See weather overviewHow to use our weather pages